Flag for Brazil Weather past 2 weeks in Curitiba, Paraná, Brazil

Now
63 °F

Sunny.


Feels Like: 63 °F
Forecast: 49 / 74 °F
Wind: 5 mph from Northeast

Location: Curitiba Aeroporto

Current Time: Aug 30, 2014 at 11:31:50 AM

Latest Report: Aug 30, 2014 at 11:00 AM


Visibility: 10 mi

Pressure: 30.24 "Hg

Humidity: 64%

Dew point: 50 °F

Location of CuritibaLocation

Historic Weather in Curitiba — Graph

°F

Curitiba temperature yesterday

Maximum temperature yesterday: 59 °F (at 4:00 PM)
Minimum temperature yesterday: 48 °F (at 3:00 AM)
Average temperature yesterday: 52 °F

Past Weeks' High & Low Weather Summary

 TemperatureHumidityPressure
High82 °F (Aug 25, 12:00 PM)100% (Aug 15, 7:00 PM)30.45 "Hg (Aug 15, 7:00 PM)
Low41 °F (Aug 28, 1:00 AM)26% (Aug 25, 12:00 PM)29.95 "Hg (Aug 25, 2:00 PM)
Average59 °F80%30.17 "Hg
* Reported Aug 15 10:00 AM — Aug 30 10:00 AM, Curitiba, Weather by CustomWeather, © 2014

Note: Actual official high and low records may vary slightly from our data, if they occured in-between our weather recording intervals... More about our weather records

Advertising

Curitiba weather history for previous 24 hours

 ConditionsComfort  
Time TempWeatherWind HumidityBarometerVisibility
10:00 AM
Aug 30
57 °FSunny.2 mph72%30.24 "Hg10 mi
9:00 AM52 °FPartly sunny.5 mph88%30.24 "HgN/A
8:00 AM48 °FPartly sunny.6 mph94%30.21 "Hg6 mi
7:00 AM48 °FLow clouds.9 mph94%30.21 "Hg4 mi
6:00 AM48 °FLow clouds.7 mph100%30.18 "Hg4 mi
5:00 AM50 °FFog.3 mph94%30.18 "Hg2 mi
4:00 AM50 °FFog.8 mph94%30.18 "Hg2 mi
3:00 AM50 °FFog.8 mph94%30.18 "Hg2 mi
2:00 AM50 °FFog.7 mph100%30.21 "Hg2 mi
1:00 AM50 °FFog.5 mph100%30.21 "Hg2 mi
12:00 AM50 °FFog.6 mph100%30.24 "Hg2 mi
11:00 PM
Aug 29
50 °FFog.8 mph100%30.21 "Hg2 mi
10:00 PM50 °FFog.5 mph100%30.24 "Hg1 mi
9:00 PM50 °FFog.5 mph100%N/A1 mi
8:10 PM50 °FFog.6 mph100%30.21 "Hg2 mi
8:00 PM50 °FPassing clouds.9 mph100%30.21 "Hg4 mi
7:05 PM50 °FPassing clouds.7 mph100%30.18 "HgN/A
7:00 PM50 °FPassing clouds.6 mph100%30.18 "HgN/A
6:00 PM54 °FPassing clouds.6 mph88%30.18 "HgN/A
4:00 PM59 °FPartly sunny.7 mph77%30.18 "HgN/A
3:00 PM57 °FBroken clouds.6 mph77%30.18 "HgN/A
2:00 PM55 °FMostly cloudy.8 mph82%30.18 "HgN/A
1:00 PM55 °FOvercast.8 mph82%30.21 "HgN/A
12:00 PM55 °FOvercast.9 mph82%30.24 "HgN/A
11:00 AM54 °FOvercast.12 mph88%30.24 "HgN/A
Weather by CustomWeather, © 2014

See weather overviewHow to use our weather pages